| time (UTC) | temp F | wind direction | speed knots | gust knots | rain 1hr in | rain 24hr in | rain mn in | humidity % | barometer mb |
| 20260510034012 | 76 | 98 | 0.0 | 0.9 | 0.00 | 0.00 | 0.00 | 84 | 1014.7 |
| 20260510033508 | 77 | 113 | 0.0 | 0.0 | 0.00 | 0.00 | 0.00 | 84 | 1014.8 |
| 20260510033007 | 77 | 158 | 0.0 | 0.0 | 0.00 | 0.00 | 0.00 | 83 | 1014.7 |
| 20260510032503 | 77 | 156 | 0.0 | 1.7 | 0.00 | 0.00 | 0.00 | 83 | 1014.7 |
| 20260510032003 | 77 | 159 | 0.0 | 2.6 | 0.00 | 0.00 | 0.00 | 83 | 1014.6 |
| 20260510031458 | 77 | 147 | 0.0 | 2.6 | 0.00 | 0.00 | 0.00 | 83 | 1014.5 |
| 20260510030954 | 77 | 165 | 0.9 | 2.6 | 0.00 | 0.00 | 0.00 | 83 | 1014.4 |
| 20260510030450 | 78 | 135 | 0.0 | 1.7 | 0.00 | 0.00 | 0.00 | 83 | 1014.4 |
| 20260510025947 | 78 | 147 | 0.0 | 2.6 | 0.00 | 0.00 | 0.00 | 82 | 1014.4 |
| 20260510025445 | 78 | 144 | 0.9 | 1.7 | 0.00 | 0.00 | 0.00 | 81 | 1014.2 |
| 20260510024942 | 78 | 158 | 0.0 | 2.6 | 0.00 | 0.00 | 0.00 | 81 | 1014.2 |
| 20260510024438 | 78 | 131 | 0.0 | 1.7 | 0.00 | 0.00 | 0.00 | 81 | 1014.4 |
| 20260510023934 | 78 | 143 | 1.7 | 2.6 | 0.00 | 0.00 | 0.00 | 81 | 1014.2 |
| 20260510023431 | 78 | 180 | 0.0 | 0.9 | 0.00 | 0.00 | 0.00 | 81 | 1014.1 |
| 20260510022928 | 78 | 159 | 0.0 | 0.9 | 0.00 | 0.00 | 0.00 | 80 | 1013.6 |
| 20260510022427 | 78 | 156 | 0.0 | 1.7 | 0.00 | 0.00 | 0.00 | 80 | 1013.9 |
| 20260510021926 | 78 | 165 | 0.0 | 0.9 | 0.00 | 0.00 | 0.00 | 80 | 1013.7 |
| 20260510021424 | 78 | 110 | 0.0 | 0.0 | 0.00 | 0.00 | 0.00 | 80 | 1013.6 |
| 20260510020921 | 78 | 110 | 0.0 | 0.0 | 0.00 | 0.00 | 0.00 | 79 | 1013.6 |
| 20260510020421 | 78 | 156 | 0.0 | 0.9 | 0.00 | 0.00 | 0.00 | 78 | 1013.4 |
| 20260510015917 | 79 | 189 | 0.0 | 0.0 | 0.00 | 0.00 | 0.00 | 78 | 1013.4 |
| 20260510015413 | 79 | 189 | 0.0 | 0.0 | 0.00 | 0.00 | 0.00 | 78 | 1013.6 |
| 20260510014908 | 79 | 189 | 0.0 | 0.0 | 0.00 | 0.00 | 0.00 | 77 | 1013.1 |
| 20260510014406 | 79 | 76 | 0.9 | 0.9 | 0.00 | 0.00 | 0.00 | 76 | 1013.5 |
| 20260510013903 | 80 | 144 | 0.0 | 0.0 | 0.00 | 0.00 | 0.00 | 76 | 1013.3 |
| 20260510013357 | 80 | 144 | 0.0 | 1.7 | 0.00 | 0.00 | 0.00 | 75 | 1013.4 |
| 20260510012853 | 80 | 180 | 0.0 | 2.6 | 0.00 | 0.00 | 0.00 | 74 | 1013.3 |
| 20260510012348 | 81 | 123 | 0.0 | 2.6 | 0.00 | 0.00 | 0.00 | 73 | 1013.0 |
| 20260510011843 | 81 | 196 | 0.0 | 2.6 | 0.00 | 0.00 | 0.00 | 73 | 1013.3 |
| 20260510011338 | 81 | 204 | 0.9 | 2.6 | 0.00 | 0.00 | 0.00 | 72 | 1013.2 |
| 20260510010835 | 82 | 119 | 0.0 | 0.9 | 0.00 | 0.00 | 0.00 | 71 | 1013.2 |
| 20260510010332 | 82 | 118 | 0.0 | 3.5 | 0.00 | 0.00 | 0.00 | 70 | 1013.0 |
| 20260510005829 | 82 | 168 | 0.0 | 1.7 | 0.00 | 0.00 | 0.00 | 69 | 1013.0 |
| 20260510005325 | 83 | 124 | 0.0 | 1.7 | 0.00 | 0.00 | 0.00 | 68 | 1012.8 |
| 20260510004823 | 83 | 156 | 0.0 | 2.6 | 0.00 | 0.00 | 0.00 | 67 | 1013.1 |
| 20260510004320 | 84 | 111 | 1.7 | 2.6 | 0.00 | 0.00 | 0.00 | 65 | 1012.8 |
| 20260510003818 | 84 | 129 | 2.6 | 2.6 | 0.00 | 0.00 | 0.00 | 64 | 1012.7 |
| 20260510003315 | 85 | 153 | 2.6 | 3.5 | 0.00 | 0.00 | 0.00 | 63 | 1012.9 |
| 20260510002813 | 85 | 105 | 0.9 | 5.2 | 0.00 | 0.00 | 0.00 | 61 | 1012.6 |
| 20260510002311 | 85 | 121 | 0.0 | 2.6 | 0.00 | 0.00 | 0.00 | 60 | 1012.4 |
| 20260510001807 | 86 | 116 | 0.9 | 2.6 | 0.00 | 0.00 | 0.00 | 59 | 1012.6 |
| 20260510001306 | 86 | 109 | 1.7 | 2.6 | 0.00 | 0.00 | 0.00 | 58 | 1012.6 |
| 20260510000801 | 86 | 121 | 2.6 | 4.3 | 0.00 | 0.00 | 0.00 | 57 | 1012.8 |
| 20260510000259 | 86 | 172 | 0.0 | 4.3 | 0.00 | 0.00 | 0.00 | 57 | 1012.5 |
| 20260509235756 | 87 | 140 | 2.6 | 5.2 | 0.00 | 0.00 | 0.00 | 57 | 1012.5 |
| 20260509235252 | 87 | 133 | 3.5 | 7.8 | 0.00 | 0.00 | 0.00 | 56 | 1012.4 |
| 20260509234748 | 87 | 119 | 2.6 | 3.5 | 0.00 | 0.00 | 0.00 | 56 | 1012.4 |
| 20260509234245 | 87 | 160 | 1.7 | 4.3 | 0.00 | 0.00 | 0.00 | 55 | 1012.5 |
| 20260509233743 | 89 | 180 | 0.0 | 2.6 | 0.00 | 0.00 | 0.00 | 53 | 1012.4 |
| 20260509233240 | 88 | 165 | 0.0 | 4.3 | 0.00 | 0.00 | 0.00 | 51 | 1012.2 |
| 20260509232736 | 88 | 116 | 0.9 | 7.0 | 0.00 | 0.00 | 0.00 | 50 | 1012.2 |
| 20260509232233 | 88 | 112 | 3.5 | 5.2 | 0.00 | 0.00 | 0.00 | 49 | 1012.5 |
| 20260509231730 | 89 | 138 | 2.6 | 7.0 | 0.00 | 0.00 | 0.00 | 48 | 1012.3 |
| 20260509231227 | 88 | 122 | 2.6 | 5.2 | 0.00 | 0.00 | 0.00 | 47 | 1012.3 |
| 20260509230725 | 89 | 201 | 0.0 | 4.3 | 0.00 | 0.00 | 0.00 | 48 | 1012.3 |
| 20260509230221 | 90 | 118 | 5.2 | 5.2 | 0.00 | 0.00 | 0.00 | 48 | 1012.2 |
| 20260509225716 | 90 | 162 | 1.7 | 4.3 | 0.00 | 0.00 | 0.00 | 47 | 1012.0 |
| 20260509225212 | 89 | 122 | 4.3 | 6.1 | 0.00 | 0.00 | 0.00 | 48 | 1012.1 |
| 20260509224708 | 89 | 105 | 0.0 | 6.1 | 0.00 | 0.00 | 0.00 | 48 | 1012.2 |
| 20260509224206 | 89 | 112 | 0.0 | 6.1 | 0.00 | 0.00 | 0.00 | 49 | 1012.0 |
| 20260509223702 | 90 | 105 | 3.5 | 3.5 | 0.00 | 0.00 | 0.00 | 49 | 1012.1 |
| 20260509223159 | 90 | 132 | 2.6 | 4.3 | 0.00 | 0.00 | 0.00 | 49 | 1012.3 |
| 20260509222656 | 90 | 94 | 0.0 | 4.3 | 0.00 | 0.00 | 0.00 | 49 | 1012.3 |
| 20260509222151 | 90 | 119 | 1.7 | 4.3 | 0.00 | 0.00 | 0.00 | 49 | 1012.3 |
| 20260509221642 | 89 | 113 | 2.6 | 7.8 | 0.00 | 0.00 | 0.00 | 49 | 1012.3 |
| 20260509221138 | 89 | 108 | 1.7 | 6.1 | 0.00 | 0.00 | 0.00 | 51 | 1012.4 |
| 20260509220634 | 91 | 188 | 0.9 | 3.5 | 0.00 | 0.00 | 0.00 | 51 | 1012.0 |
| 20260509220130 | 89 | 120 | 3.5 | 3.5 | 0.00 | 0.00 | 0.00 | 50 | 1012.3 |
| 20260509215627 | 89 | 135 | 0.0 | 5.2 | 0.00 | 0.00 | 0.00 | 51 | 1012.1 |
| 20260509215123 | 89 | 112 | 2.6 | 2.6 | 0.00 | 0.00 | 0.00 | 52 | 1012.3 |
| 20260509214620 | 89 | 124 | 5.2 | 5.2 | 0.00 | 0.00 | 0.00 | 51 | 1012.3 |
| 20260509214111 | 89 | 161 | 1.7 | 5.2 | 0.00 | 0.00 | 0.00 | 51 | 1012.5 |
| 20260509213607 | 90 | 138 | 6.1 | 6.1 | 0.00 | 0.00 | 0.00 | 51 | 1012.4 |
| 20260509213104 | 89 | 153 | 1.7 | 7.0 | 0.00 | 0.00 | 0.00 | 52 | 1012.4 |
| 20260509212602 | 89 | 180 | 0.0 | 7.0 | 0.00 | 0.00 | 0.00 | 53 | 1012.6 |
| 20260509212058 | 90 | 108 | 1.7 | 6.1 | 0.00 | 0.00 | 0.00 | 54 | 1012.5 |
| 20260509211554 | 90 | 126 | 9.6 | 9.6 | 0.00 | 0.00 | 0.00 | 55 | 1012.6 |
| 20260509211051 | 91 | 180 | 0.0 | 3.5 | 0.00 | 0.00 | 0.00 | 56 | 1012.6 |
| 20260509210547 | 90 | 125 | 0.0 | 5.2 | 0.00 | 0.00 | 0.00 | 56 | 1012.6 |
| 20260509210044 | 90 | 114 | 5.2 | 7.8 | 0.00 | 0.00 | 0.00 | 54 | 1012.8 |
| 20260509205538 | 90 | 113 | 5.2 | 7.0 | 0.00 | 0.00 | 0.00 | 53 | 1012.8 |
| 20260509205034 | 90 | 121 | 5.2 | 7.0 | 0.00 | 0.00 | 0.00 | 53 | 1012.9 |
| 20260509204530 | 92 | 90 | 2.6 | 3.5 | 0.00 | 0.00 | 0.00 | 51 | 1013.0 |
| 20260509204027 | 91 | 170 | 0.0 | 2.6 | 0.00 | 0.00 | 0.00 | 50 | 1013.1 |
| 20260509203522 | 91 | 172 | 0.9 | 2.6 | 0.00 | 0.00 | 0.00 | 52 | 1013.0 |
| 20260509203021 | 92 | 189 | 0.0 | 1.7 | 0.00 | 0.00 | 0.00 | 54 | 1013.0 |
| 20260509202515 | 91 | 72 | 0.0 | 2.6 | 0.00 | 0.00 | 0.00 | 52 | 1013.2 |
| 20260509202011 | 90 | 42 | 0.0 | 2.6 | 0.00 | 0.00 | 0.00 | 53 | 1013.2 |
| 20260509201506 | 90 | 342 | 2.6 | 5.2 | 0.00 | 0.00 | 0.00 | 54 | 1013.3 |
| 20260509201004 | 90 | 58 | 0.0 | 4.3 | 0.00 | 0.00 | 0.00 | 55 | 1013.5 |
| 20260509200503 | 91 | 270 | 0.0 | 3.5 | 0.00 | 0.00 | 0.00 | 57 | 1013.6 |
| 20260509200000 | 90 | 319 | 0.0 | 1.7 | 0.00 | 0.00 | 0.00 | 58 | 1013.7 |
| 20260509195455 | 90 | 262 | 0.0 | 2.6 | 0.00 | 0.00 | 0.00 | 58 | 1013.4 |
| 20260509194950 | 90 | 252 | 1.7 | 3.5 | 0.00 | 0.00 | 0.00 | 57 | 1013.4 |
| 20260509194446 | 90 | 86 | 1.7 | 2.6 | 0.00 | 0.00 | 0.00 | 57 | 1013.4 |
| 20260509193943 | 89 | 323 | 0.0 | 4.3 | 0.00 | 0.00 | 0.00 | 58 | 1013.5 |
| 20260509193442 | 90 | 251 | 0.0 | 2.6 | 0.00 | 0.00 | 0.00 | 58 | 1013.5 |
| 20260509192938 | 89 | 329 | 0.0 | 7.8 | 0.00 | 0.00 | 0.00 | 60 | 1013.6 |
| 20260509192435 | 89 | 163 | 0.0 | 2.6 | 0.00 | 0.00 | 0.00 | 59 | 1013.6 |
| 20260509191930 | 89 | 144 | 0.0 | 3.5 | 0.00 | 0.00 | 0.00 | 58 | 1013.6 |
| 20260509191426 | 88 | 339 | 0.0 | 4.3 | 0.00 | 0.00 | 0.00 | 58 | 1013.5 |
| 20260509190922 | 89 | 345 | 3.5 | 4.3 | 0.00 | 0.00 | 0.00 | 58 | 1013.7 |
| 20260509190419 | 89 | 339 | 0.0 | 6.1 | 0.00 | 0.00 | 0.00 | 61 | 1013.8 |
| 20260509185917 | 89 | 330 | 1.7 | 3.5 | 0.00 | 0.00 | 0.00 | 61 | 1013.9 |
| 20260509185414 | 91 | 204 | 0.0 | 2.6 | 0.00 | 0.00 | 0.00 | 59 | 1014.0 |
| 20260509184910 | 89 | 343 | 4.3 | 4.3 | 0.00 | 0.00 | 0.00 | 59 | 1014.1 |
| 20260509184408 | 90 | 233 | 1.7 | 2.6 | 0.00 | 0.00 | 0.00 | 59 | 1014.2 |
| 20260509183905 | 89 | 216 | 0.0 | 4.3 | 0.00 | 0.00 | 0.00 | 62 | 1014.2 |
| 20260509183405 | 89 | 156 | 0.0 | 0.9 | 0.00 | 0.00 | 0.00 | 60 | 1014.5 |
| 20260509182902 | 88 | 322 | 0.0 | 1.7 | 0.00 | 0.00 | 0.00 | 65 | 1014.3 |
| 20260509182358 | 87 | 244 | 0.9 | 2.6 | 0.00 | 0.00 | 0.00 | 62 | 1014.5 |
| 20260509181856 | 87 | 14 | 2.6 | 4.3 | 0.00 | 0.00 | 0.00 | 66 | 1014.5 |
| 20260509181347 | 86 | 240 | 0.0 | 3.5 | 0.00 | 0.00 | 0.00 | 67 | 1014.8 |
| 20260509180845 | 88 | 306 | 0.0 | 2.6 | 0.00 | 0.00 | 0.00 | 63 | 1014.8 |
| 20260509180341 | 89 | 156 | 0.0 | 2.6 | 0.00 | 0.00 | 0.00 | 62 | 1014.9 |
| 20260509175838 | 88 | 242 | 1.7 | 2.6 | 0.00 | 0.00 | 0.00 | 66 | 1014.6 |
| 20260509175334 | 88 | 180 | 0.0 | 1.7 | 0.00 | 0.00 | 0.00 | 65 | 1014.7 |
| 20260509174830 | 88 | 270 | 0.0 | 2.6 | 0.00 | 0.00 | 0.00 | 66 | 1014.8 |
| 20260509174326 | 87 | 159 | 0.0 | 5.2 | 0.00 | 0.00 | 0.00 | 68 | 1015.3 |
| 20260509173821 | 86 | 187 | 0.0 | 1.7 | 0.00 | 0.00 | 0.00 | 66 | 1015.0 |
| 20260509173312 | 85 | 305 | 0.9 | 6.1 | 0.00 | 0.00 | 0.00 | 69 | 1015.2 |
| 20260509172808 | 86 | 42 | 0.0 | 2.6 | 0.00 | 0.00 | 0.00 | 70 | 1015.4 |
| 20260509172306 | 85 | 189 | 0.0 | 2.6 | 0.00 | 0.00 | 0.00 | 69 | 1015.5 |
| 20260509171800 | 87 | 156 | 0.0 | 1.7 | 0.00 | 0.00 | 0.00 | 67 | 1015.4 |
| 20260509171251 | 86 | 270 | 0.0 | 4.3 | 0.00 | 0.00 | 0.00 | 72 | 1015.2 |
| 20260509170747 | 86 | 64 | 1.7 | 2.6 | 0.00 | 0.00 | 0.00 | 68 | 1015.4 |
| 20260509170244 | 86 | 232 | 0.0 | 1.7 | 0.00 | 0.00 | 0.00 | 66 | 1015.5 |
| 20260509165742 | 86 | 23 | 1.7 | 2.6 | 0.00 | 0.00 | 0.00 | 69 | 1015.4 |
| 20260509165238 | 85 | 195 | 0.0 | 2.6 | 0.00 | 0.00 | 0.00 | 70 | 1015.4 |
| 20260509164734 | 85 | 270 | 0.9 | 2.6 | 0.00 | 0.00 | 0.00 | 70 | 1015.3 |
| 20260509164230 | 85 | 169 | 1.7 | 1.7 | 0.00 | 0.00 | 0.00 | 68 | 1015.5 |
| 20260509163727 | 85 | 16 | 2.6 | 2.6 | 0.00 | 0.00 | 0.00 | 71 | 1015.6 |
| 20260509163223 | 85 | 173 | 0.9 | 2.6 | 0.00 | 0.00 | 0.00 | 71 | 1015.3 |
| 20260509162721 | 85 | 180 | 0.0 | 0.9 | 0.00 | 0.00 | 0.00 | 72 | 1015.2 |
| 20260509162216 | 84 | 180 | 0.9 | 1.7 | 0.00 | 0.00 | 0.00 | 74 | 1015.4 |
| 20260509161712 | 84 | 165 | 1.7 | 2.6 | 0.00 | 0.00 | 0.00 | 75 | 1015.5 |
| 20260509161209 | 84 | 193 | 0.0 | 2.6 | 0.00 | 0.00 | 0.00 | 77 | 1015.6 |
| 20260509160704 | 83 | 241 | 1.7 | 3.5 | 0.00 | 0.00 | 0.00 | 77 | 1015.6 |
| 20260509160200 | 82 | 180 | 1.7 | 2.6 | 0.00 | 0.00 | 0.00 | 81 | 1015.3 |
| 20260509155655 | 82 | 125 | 0.0 | 1.7 | 0.00 | 0.00 | 0.00 | 82 | 1015.7 |
| 20260509155152 | 81 | 180 | 0.9 | 3.5 | 0.00 | 0.00 | 0.00 | 83 | 1015.6 |
| 20260509154648 | 80 | 216 | 0.9 | 3.5 | 0.00 | 0.00 | 0.00 | 85 | 1015.8 |
| 20260509154145 | 78 | 270 | 0.0 | 3.5 | 0.00 | 0.00 | 0.00 | 90 | 1015.6 |
| 20260509153642 | 77 | 187 | 0.9 | 2.6 | 0.00 | 0.00 | 0.00 | 90 | 1015.8 |
| 20260509153139 | 77 | 163 | 0.0 | 2.6 | 0.00 | 0.00 | 0.00 | 90 | 1015.6 |
| 20260509152634 | 77 | 150 | 0.9 | 3.5 | 0.00 | 0.00 | 0.00 | 91 | 1015.7 |
| 20260509152132 | 77 | 167 | 1.7 | 2.6 | 0.00 | 0.00 | 0.00 | 90 | 1015.7 |
| 20260509151628 | 77 | 173 | 0.9 | 1.7 | 0.00 | 0.00 | 0.00 | 91 | 1015.5 |
| 20260509151126 | 76 | 172 | 0.9 | 2.6 | 0.00 | 0.00 | 0.00 | 92 | 1015.5 |
| 20260509150624 | 76 | 165 | 0.0 | 2.6 | 0.00 | 0.00 | 0.00 | 93 | 1015.6 |
| 20260509150122 | 76 | 180 | 0.0 | 3.5 | 0.00 | 0.00 | 0.00 | 93 | 1015.5 |
| 20260509145618 | 76 | 153 | 0.0 | 2.6 | 0.00 | 0.00 | 0.00 | 93 | 1015.3 |
| 20260509145112 | 76 | 172 | 0.9 | 2.6 | 0.00 | 0.00 | 0.00 | 94 | 1015.5 |
| 20260509144610 | 75 | 116 | 2.6 | 2.6 | 0.00 | 0.00 | 0.00 | 95 | 1015.0 |
| 20260509144107 | 75 | 98 | 0.0 | 1.7 | 0.00 | 0.00 | 0.00 | 97 | 1015.4 |
| 20260509143604 | 75 | 105 | 0.0 | 2.6 | 0.00 | 0.00 | 0.00 | 98 | 1014.9 |
| 20260509143102 | 74 | 118 | 0.0 | 2.6 | 0.00 | 0.00 | 0.00 | 98 | 1014.8 |
| 20260509142602 | 74 | 199 | 0.0 | 2.6 | 0.00 | 0.00 | 0.00 | 99 | 1015.0 |
| 20260509142058 | 73 | 171 | 0.0 | 1.7 | 0.00 | 0.00 | 0.00 | 99 | 1014.8 |
| 20260509141554 | 73 | 90 | 0.9 | 6.1 | 0.00 | 0.00 | 0.00 | 99 | 1014.6 |
| 20260509141051 | 74 | 156 | 1.7 | 3.5 | 0.00 | 0.00 | 0.00 | 99 | 1014.7 |
| 20260509140548 | 73 | 156 | 0.9 | 3.5 | 0.00 | 0.00 | 0.00 | 99 | 1014.6 |
| 20260509140046 | 74 | 250 | 0.0 | 2.6 | 0.00 | 0.00 | 0.00 | 99 | 1014.3 |
| 20260509135543 | 74 | 217 | 0.0 | 2.6 | 0.00 | 0.00 | 0.00 | 99 | 1014.2 |
| 20260509135041 | 74 | 171 | 0.0 | 1.7 | 0.00 | 0.00 | 0.00 | 99 | 1014.5 |
| 20260509134537 | 73 | 94 | 0.0 | 3.5 | 0.00 | 0.00 | 0.00 | 99 | 1014.5 |
| 20260509134036 | 73 | 138 | 0.0 | 2.6 | 0.00 | 0.00 | 0.00 | 99 | 1014.4 |
| 20260509133532 | 73 | 171 | 0.0 | 2.6 | 0.00 | 0.00 | 0.00 | 99 | 1014.6 |
| 20260509133029 | 73 | 156 | 0.0 | 0.9 | 0.00 | 0.00 | 0.00 | 99 | 1014.6 |
| 20260509132527 | 73 | 188 | 0.9 | 1.7 | 0.00 | 0.00 | 0.00 | 99 | 1014.7 |
| 20260509132026 | 72 | 119 | 0.0 | 0.0 | 0.00 | 0.00 | 0.00 | 99 | 1015.2 |
| 20260509131521 | 71 | 67 | 0.0 | 0.9 | 0.00 | 0.00 | 0.00 | 99 | 1015.5 |
| 20260509131018 | 71 | 55 | 0.0 | 0.9 | 0.00 | 0.00 | 0.00 | 99 | 1015.6 |
| 20260509130514 | 71 | 0 | 0.9 | 1.7 | 0.00 | 0.00 | 0.00 | 99 | 1015.7 |
| 20260509130011 | 71 | 9 | 0.0 | 1.7 | 0.00 | 0.00 | 0.00 | 99 | 1015.6 |
| 20260509125507 | 71 | 27 | 0.0 | 0.0 | 0.00 | 0.00 | 0.00 | 99 | 1015.4 |
| 20260509125003 | 71 | 16 | 0.0 | 0.0 | 0.00 | 0.00 | 0.00 | 99 | 1015.4 |
| 20260509124455 | 71 | 8 | 0.0 | 0.0 | 0.00 | 0.00 | 0.00 | 99 | 1015.0 |
| 20260509123953 | 71 | 21 | 0.0 | 0.0 | 0.00 | 0.00 | 0.00 | 99 | 1015.2 |
| 20260509123450 | 71 | 21 | 0.0 | 0.0 | 0.00 | 0.00 | 0.00 | 99 | 1014.8 |
| 20260509122945 | 72 | 21 | 0.0 | 0.0 | 0.00 | 0.00 | 0.00 | 99 | 1014.9 |
| 20260509122443 | 71 | 21 | 0.0 | 0.9 | 0.00 | 0.00 | 0.00 | 99 | 1014.8 |
| 20260509121939 | 72 | 30 | 0.0 | 0.0 | 0.00 | 0.00 | 0.00 | 99 | 1014.8 |
| 20260509121436 | 71 | 30 | 0.0 | 0.0 | 0.00 | 0.00 | 0.00 | 99 | 1014.6 |
| 20260509120934 | 71 | 30 | 0.0 | 0.0 | 0.00 | 0.00 | 0.00 | 99 | 1014.6 |
| 20260509120431 | 71 | 30 | 0.0 | 0.0 | 0.00 | 0.00 | 0.00 | 99 | 1014.6 |
| 20260509115929 | 71 | 30 | 0.0 | 0.0 | 0.00 | 0.00 | 0.00 | 99 | 1014.9 |
| 20260509115426 | 71 | 30 | 0.0 | 0.0 | 0.00 | 0.00 | 0.00 | 99 | 1014.9 |
| 20260509114924 | 71 | 30 | 0.0 | 0.0 | 0.00 | 0.00 | 0.00 | 99 | 1015.3 |
| 20260509114423 | 71 | 105 | 0.0 | 0.0 | 0.00 | 0.00 | 0.00 | 99 | 1015.2 |
| 20260509113922 | 71 | 105 | 0.0 | 0.0 | 0.00 | 0.00 | 0.00 | 99 | 1015.2 |
| 20260509113419 | 71 | 61 | 0.0 | 0.9 | 0.00 | 0.00 | 0.00 | 99 | 1015.3 |
| 20260509112916 | 71 | 76 | 0.0 | 0.0 | 0.00 | 0.00 | 0.00 | 99 | 1015.7 |
| 20260509112413 | 72 | 9 | 0.0 | 1.7 | 0.00 | 0.00 | 0.00 | 99 | 1015.8 |
| 20260509111910 | 72 | 27 | 0.0 | 0.9 | 0.00 | 0.00 | 0.00 | 99 | 1015.9 |
| 20260509111406 | 72 | 37 | 0.0 | 1.7 | 0.00 | 0.00 | 0.00 | 99 | 1016.1 |
| 20260509110904 | 71 | 74 | 1.7 | 1.7 | 0.00 | 0.00 | 0.00 | 99 | 1015.8 |
| 20260509110359 | 72 | 84 | 0.0 | 0.0 | 0.00 | 0.00 | 0.00 | 99 | 1015.7 |
| 20260509105858 | 71 | 54 | 0.0 | 1.7 | 0.00 | 0.00 | 0.00 | 99 | 1015.9 |
| 20260509105356 | 71 | 0 | 0.0 | 1.7 | 0.00 | 0.00 | 0.00 | 99 | 1016.0 |
| 20260509104852 | 72 | 55 | 0.0 | 0.9 | 0.00 | 0.00 | 0.00 | 99 | 1016.2 |
| 20260509104348 | 72 | 61 | 0.0 | 1.7 | 0.00 | 0.00 | 0.00 | 99 | 1016.1 |
| 20260509103846 | 72 | 61 | 0.0 | 0.9 | 0.00 | 0.00 | 0.00 | 99 | 1016.0 |
| 20260509103344 | 71 | 70 | 0.0 | 2.6 | 0.00 | 0.00 | 0.00 | 99 | 1016.1 |
| 20260509102842 | 72 | 76 | 0.0 | 3.5 | 0.00 | 0.00 | 0.00 | 99 | 1016.0 |
| 20260509102339 | 72 | 85 | 0.9 | 1.7 | 0.00 | 0.00 | 0.00 | 99 | 1016.1 |
| 20260509101835 | 72 | 0 | 0.0 | 0.9 | 0.00 | 0.00 | 0.00 | 99 | 1015.8 |
| 20260509101331 | 72 | 75 | 0.0 | 0.9 | 0.00 | 0.00 | 0.00 | 99 | 1015.8 |
| 20260509100830 | 72 | 97 | 0.0 | 0.9 | 0.00 | 0.00 | 0.00 | 99 | 1015.5 |
| 20260509100326 | 71 | 119 | 0.0 | 0.0 | 0.00 | 0.00 | 0.00 | 99 | 1015.6 |
| 20260509095823 | 71 | 119 | 0.0 | 0.0 | 0.00 | 0.00 | 0.00 | 99 | 1015.0 |
| 20260509095320 | 71 | 119 | 0.0 | 0.0 | 0.00 | 0.00 | 0.00 | 99 | 1014.6 |
| 20260509094817 | 72 | 119 | 0.0 | 0.0 | 0.00 | 0.00 | 0.00 | 99 | 1014.4 |
| 20260509094314 | 71 | 119 | 0.0 | 0.0 | 0.00 | 0.00 | 0.00 | 99 | 1014.4 |
| 20260509093811 | 71 | 119 | 0.0 | 0.0 | 0.00 | 0.00 | 0.00 | 99 | 1014.5 |
| 20260509093309 | 72 | 119 | 0.0 | 0.0 | 0.00 | 0.00 | 0.00 | 99 | 1014.4 |
| 20260509092807 | 71 | 119 | 0.0 | 0.9 | 0.00 | 0.00 | 0.00 | 99 | 1014.4 |
| 20260509092306 | 72 | 116 | 0.0 | 0.9 | 0.00 | 0.00 | 0.00 | 99 | 1014.5 |
| 20260509091803 | 72 | 125 | 0.9 | 1.7 | 0.00 | 0.00 | 0.00 | 99 | 1014.4 |
| 20260509091259 | 72 | 90 | 0.0 | 0.0 | 0.00 | 0.00 | 0.00 | 99 | 1014.6 |
| 20260509090756 | 72 | 90 | 0.0 | 0.0 | 0.00 | 0.00 | 0.00 | 99 | 1014.7 |
| 20260509090253 | 72 | 90 | 0.0 | 0.0 | 0.00 | 0.00 | 0.00 | 99 | 1014.6 |
| 20260509085751 | 72 | 90 | 0.0 | 0.0 | 0.00 | 0.00 | 0.00 | 99 | 1014.3 |
| 20260509085248 | 72 | 90 | 0.0 | 0.0 | 0.00 | 0.00 | 0.00 | 99 | 1014.3 |
| 20260509084744 | 72 | 90 | 0.0 | 0.0 | 0.00 | 0.00 | 0.00 | 99 | 1014.5 |
| 20260509084241 | 72 | 95 | 0.9 | 0.9 | 0.00 | 0.00 | 0.00 | 99 | 1014.5 |
| 20260509083739 | 72 | 98 | 0.0 | 1.7 | 0.00 | 0.00 | 0.00 | 99 | 1014.6 |
| 20260509083236 | 72 | 108 | 0.0 | 0.0 | 0.00 | 0.00 | 0.00 | 99 | 1014.8 |
| 20260509082732 | 72 | 113 | 0.0 | 0.0 | 0.00 | 0.00 | 0.00 | 99 | 1014.8 |
| 20260509082229 | 72 | 98 | 0.0 | 0.9 | 0.00 | 0.00 | 0.00 | 99 | 1014.7 |
| 20260509081726 | 72 | 98 | 0.0 | 0.9 | 0.00 | 0.00 | 0.00 | 98 | 1014.8 |
| 20260509081224 | 72 | 90 | 0.0 | 0.0 | 0.00 | 0.00 | 0.00 | 98 | 1015.3 |
| 20260509080722 | 72 | 50 | 0.0 | 1.7 | 0.00 | 0.00 | 0.00 | 98 | 1014.9 |
| 20260509080219 | 72 | 55 | 0.0 | 0.9 | 0.00 | 0.00 | 0.00 | 98 | 1014.9 |
| 20260509075717 | 72 | 50 | 0.0 | 2.6 | 0.00 | 0.00 | 0.00 | 97 | 1014.7 |
| 20260509075215 | 72 | 82 | 0.0 | 1.7 | 0.00 | 0.00 | 0.00 | 97 | 1014.8 |
| 20260509074712 | 72 | 24 | 0.0 | 0.9 | 0.00 | 0.00 | 0.00 | 97 | 1014.7 |
| 20260509074209 | 72 | 61 | 0.0 | 2.6 | 0.00 | 0.00 | 0.00 | 97 | 1014.8 |
| 20260509073705 | 73 | 67 | 0.0 | 0.9 | 0.00 | 0.00 | 0.00 | 97 | 1014.8 |
| 20260509073201 | 72 | 90 | 0.0 | 0.9 | 0.00 | 0.00 | 0.00 | 96 | 1014.7 |
| 20260509072658 | 72 | 21 | 0.0 | 0.0 | 0.00 | 0.00 | 0.00 | 96 | 1014.8 |
| 20260509072155 | 73 | 98 | 0.0 | 0.0 | 0.00 | 0.00 | 0.00 | 96 | 1014.8 |
| 20260509071651 | 73 | 98 | 0.0 | 0.0 | 0.00 | 0.00 | 0.00 | 96 | 1014.9 |
| 20260509071148 | 72 | 150 | 0.0 | 2.6 | 0.00 | 0.00 | 0.00 | 96 | 1014.8 |
| 20260509070645 | 73 | 156 | 0.9 | 1.7 | 0.00 | 0.00 | 0.00 | 96 | 1014.9 |
| 20260509070141 | 73 | 156 | 0.0 | 0.9 | 0.00 | 0.00 | 0.00 | 96 | 1015.2 |
| 20260509065637 | 73 | 126 | 0.0 | 0.0 | 0.00 | 0.00 | 0.00 | 96 | 1015.3 |
| 20260509065133 | 73 | 119 | 0.0 | 1.7 | 0.00 | 0.00 | 0.00 | 96 | 1015.2 |
| 20260509064631 | 73 | 164 | 0.0 | 0.9 | 0.00 | 0.00 | 0.00 | 96 | 1015.2 |
| 20260509064130 | 73 | 165 | 0.0 | 0.0 | 0.00 | 0.00 | 0.00 | 96 | 1014.8 |
| 20260509063626 | 73 | 159 | 0.0 | 1.7 | 0.00 | 0.00 | 0.00 | 96 | 1014.6 |
| 20260509063122 | 72 | 156 | 0.0 | 1.7 | 0.00 | 0.00 | 0.00 | 96 | 1014.5 |
| 20260509062620 | 73 | 165 | 0.0 | 0.0 | 0.00 | 0.00 | 0.00 | 96 | 1014.8 |
| 20260509062116 | 73 | 126 | 0.0 | 1.7 | 0.00 | 0.00 | 0.00 | 96 | 1014.8 |
| 20260509061613 | 72 | 172 | 0.0 | 2.6 | 0.00 | 0.00 | 0.00 | 96 | 1014.8 |
| 20260509061111 | 72 | 165 | 0.0 | 3.5 | 0.00 | 0.00 | 0.00 | 96 | 1014.7 |
| 20260509060608 | 72 | 156 | 0.0 | 0.0 | 0.00 | 0.00 | 0.00 | 96 | 1014.5 |
| 20260509060103 | 72 | 187 | 0.0 | 1.7 | 0.00 | 0.00 | 0.00 | 96 | 1014.4 |
| 20260509055559 | 72 | 160 | 1.7 | 1.7 | 0.00 | 0.00 | 0.00 | 96 | 1014.2 |
| 20260509055055 | 72 | 143 | 1.7 | 3.5 | 0.00 | 0.00 | 0.00 | 97 | 1014.4 |
| 20260509054552 | 72 | 171 | 0.0 | 1.7 | 0.00 | 0.00 | 0.00 | 97 | 1014.5 |
| 20260509054050 | 72 | 122 | 0.0 | 1.7 | 0.00 | 0.00 | 0.00 | 97 | 1014.5 |
| 20260509053548 | 71 | 161 | 1.7 | 1.7 | 0.00 | 0.00 | 0.00 | 97 | 1014.4 |
| 20260509053045 | 71 | 186 | 1.7 | 1.7 | 0.00 | 0.00 | 0.00 | 97 | 1014.6 |
| 20260509052543 | 71 | 122 | 0.0 | 1.7 | 0.00 | 0.00 | 0.00 | 97 | 1014.1 |
| 20260509052041 | 71 | 171 | 0.0 | 1.7 | 0.00 | 0.00 | 0.00 | 97 | 1014.2 |
| 20260509051538 | 70 | 113 | 0.0 | 0.0 | 0.00 | 0.00 | 0.00 | 97 | 1014.1 |
| 20260509051035 | 70 | 113 | 0.0 | 0.0 | 0.00 | 0.00 | 0.00 | 97 | 1013.9 |
| 20260509050532 | 70 | 98 | 0.0 | 0.0 | 0.00 | 0.00 | 0.00 | 97 | 1014.0 |
| 20260509050023 | 70 | 113 | 0.0 | 1.7 | 0.00 | 0.00 | 0.00 | 96 | 1013.8 |
| 20260509045521 | 71 | 147 | 0.0 | 1.7 | 0.00 | 0.00 | 0.00 | 96 | 1014.0 |
| 20260509045017 | 71 | 111 | 0.0 | 2.6 | 0.00 | 0.00 | 0.00 | 96 | 1013.9 |
| 20260509044515 | 71 | 98 | 0.0 | 0.0 | 0.00 | 0.00 | 0.00 | 96 | 1013.9 |
| 20260509044012 | 71 | 150 | 1.7 | 1.7 | 0.00 | 0.00 | 0.00 | 96 | 1014.0 |
| 20260509043508 | 71 | 104 | 0.0 | 0.9 | 0.00 | 0.00 | 0.00 | 96 | 1014.0 |
| 20260509043005 | 71 | 123 | 0.0 | 1.7 | 0.00 | 0.00 | 0.00 | 95 | 1014.0 |
| 20260509042500 | 71 | 102 | 0.0 | 1.7 | 0.00 | 0.00 | 0.00 | 95 | 1013.9 |
| 20260509041956 | 71 | 90 | 0.0 | 1.7 | 0.00 | 0.00 | 0.00 | 95 | 1014.2 |
| 20260509041453 | 71 | 101 | 0.0 | 1.7 | 0.00 | 0.00 | 0.00 | 95 | 1014.1 |
| 20260509040951 | 71 | 105 | 0.0 | 1.7 | 0.00 | 0.00 | 0.00 | 94 | 1014.2 |
| 20260509040449 | 71 | 82 | 0.0 | 0.0 | 0.00 | 0.00 | 0.00 | 94 | 1014.2 |
| 20260509035945 | 71 | 90 | 0.0 | 0.9 | 0.00 | 0.00 | 0.00 | 94 | 1014.4 |
| 20260509035442 | 71 | 122 | 0.0 | 1.7 | 0.00 | 0.00 | 0.00 | 94 | 1014.3 |
| 20260509034938 | 71 | 97 | 0.0 | 0.0 | 0.00 | 0.00 | 0.00 | 94 | 1014.2 |
| 20260509034437 | 71 | 234 | 0.0 | 0.0 | 0.00 | 0.00 | 0.00 | 93 | 1014.3 |